| time (UTC) | temp C | wind direction | speed KPH | gust KPH | rain 1hr cm | rain 24hr cm | rain mn cm | humidity % | barometer mb |
| 20260510190529 | 25 | 92 | 4.8 | 19.3 | 0.00 | 0.00 | 0.00 | 38 | 1016.5 |
| 20260510190048 | 25 | 297 | 1.6 | 11.3 | 0.00 | 0.00 | 0.00 | 39 | 1016.3 |
| 20260510185530 | 26 | 277 | 3.2 | 11.3 | 0.00 | 0.00 | 0.00 | 42 | 1016.2 |
| 20260510185030 | 25 | 262 | 4.8 | 16.1 | 0.00 | 0.00 | 0.00 | 36 | 1016.4 |
| 20260510184535 | 25 | 250 | 3.2 | 16.1 | 0.00 | 0.00 | 0.00 | 41 | 1016.3 |
| 20260510184029 | 25 | 297 | 4.8 | 16.1 | 0.00 | 0.00 | 0.00 | 47 | 1016.4 |
| 20260510183529 | 24 | 256 | 3.2 | 16.1 | 0.00 | 0.00 | 0.00 | 47 | 1016.4 |
| 20260510183037 | 24 | 312 | 4.8 | 16.1 | 0.00 | 0.00 | 0.00 | 44 | 1016.7 |
| 20260510182533 | 25 | 327 | 4.8 | 16.1 | 0.00 | 0.00 | 0.00 | 42 | 1016.6 |
| 20260510182029 | 25 | 84 | 3.2 | 11.3 | 0.00 | 0.00 | 0.00 | 45 | 1016.5 |
| 20260510181542 | 23 | 351 | 3.2 | 17.7 | 0.00 | 0.00 | 0.00 | 47 | 1016.6 |
| 20260510181030 | 24 | 242 | 4.8 | 17.7 | 0.00 | 0.00 | 0.00 | 44 | 1016.6 |
| 20260510180530 | 25 | 180 | 3.2 | 8.0 | 0.00 | 0.00 | 0.00 | 51 | 1016.7 |
| 20260510180045 | 23 | 325 | 1.6 | 6.4 | 0.00 | 0.00 | 0.00 | 47 | 1016.8 |
| 20260510175530 | 23 | 308 | 1.6 | 6.4 | 0.00 | 0.00 | 0.00 | 50 | 1016.8 |
| 20260510175030 | 23 | 92 | 1.6 | 6.4 | 0.00 | 0.00 | 0.00 | 50 | 1016.8 |
| 20260510174547 | 23 | 74 | 1.6 | 11.3 | 0.00 | 0.00 | 0.00 | 48 | 1016.8 |
| 20260510174030 | 23 | 36 | 1.6 | 11.3 | 0.00 | 0.00 | 0.00 | 47 | 1017.0 |
| 20260510173529 | 23 | 76 | 3.2 | 11.3 | 0.00 | 0.00 | 0.00 | 48 | 1016.9 |
| 20260510173037 | 23 | 86 | 1.6 | 11.3 | 0.00 | 0.00 | 0.00 | 47 | 1017.0 |
| 20260510172531 | 23 | 298 | 4.8 | 11.3 | 0.00 | 0.00 | 0.00 | 42 | 1017.0 |
| 20260510172030 | 23 | 0 | 1.6 | 16.1 | 0.00 | 0.00 | 0.00 | 52 | 1017.1 |
| 20260510171538 | 23 | 69 | 3.2 | 16.1 | 0.00 | 0.00 | 0.00 | 47 | 1017.2 |
| 20260510171029 | 23 | 46 | 3.2 | 11.3 | 0.00 | 0.00 | 0.00 | 47 | 1017.2 |
| 20260510170530 | 23 | 104 | 1.6 | 20.9 | 0.00 | 0.00 | 0.00 | 45 | 1017.3 |
| 20260510170035 | 23 | 88 | 4.8 | 20.9 | 0.00 | 0.00 | 0.00 | 45 | 1017.4 |
| 20260510165530 | 23 | 337 | 3.2 | 11.3 | 0.00 | 0.00 | 0.00 | 46 | 1017.4 |
| 20260510165030 | 23 | 0 | 3.2 | 16.1 | 0.00 | 0.00 | 0.00 | 48 | 1017.2 |
| 20260510164538 | 24 | 89 | 3.2 | 16.1 | 0.00 | 0.00 | 0.00 | 46 | 1017.2 |
| 20260510164031 | 23 | 234 | 4.8 | 16.1 | 0.00 | 0.00 | 0.00 | 47 | 1017.2 |
| 20260510163530 | 23 | 144 | 1.6 | 16.1 | 0.00 | 0.00 | 0.00 | 47 | 1017.2 |
| 20260510163041 | 23 | 78 | 6.4 | 16.1 | 0.00 | 0.00 | 0.00 | 46 | 1017.2 |
| 20260510162529 | 23 | 167 | 4.8 | 17.7 | 0.00 | 0.00 | 0.00 | 44 | 1017.3 |
| 20260510162030 | 23 | 205 | 6.4 | 17.7 | 0.00 | 0.00 | 0.00 | 42 | 1017.4 |
| 20260510161536 | 24 | 55 | 3.2 | 12.9 | 0.00 | 0.00 | 0.00 | 46 | 1017.3 |
| 20260510161030 | 23 | 101 | 3.2 | 12.9 | 0.00 | 0.00 | 0.00 | 52 | 1017.5 |
| 20260510160529 | 23 | 266 | 4.8 | 16.1 | 0.00 | 0.00 | 0.00 | 46 | 1017.5 |
| 20260510160039 | 23 | 279 | 4.8 | 17.7 | 0.00 | 0.00 | 0.00 | 49 | 1017.5 |
| 20260510155529 | 23 | 307 | 4.8 | 17.7 | 0.00 | 0.00 | 0.00 | 50 | 1017.4 |
| 20260510155030 | 23 | 297 | 4.8 | 16.1 | 0.00 | 0.00 | 0.00 | 48 | 1017.3 |
| 20260510154552 | 22 | 77 | 4.8 | 19.3 | 0.00 | 0.00 | 0.00 | 50 | 1017.4 |
| 20260510154029 | 22 | 84 | 9.7 | 19.3 | 0.00 | 0.00 | 0.00 | 49 | 1017.6 |
| 20260510153530 | 22 | 134 | 8.0 | 17.7 | 0.00 | 0.00 | 0.00 | 52 | 1017.4 |
| 20260510153037 | 22 | 179 | 1.6 | 16.1 | 0.00 | 0.00 | 0.00 | 54 | 1017.4 |
| 20260510152530 | 22 | 313 | 3.2 | 12.9 | 0.00 | 0.00 | 0.00 | 54 | 1017.5 |
| 20260510152030 | 22 | 47 | 3.2 | 16.1 | 0.00 | 0.00 | 0.00 | 53 | 1017.5 |
| 20260510151548 | 22 | 284 | 3.2 | 16.1 | 0.00 | 0.00 | 0.00 | 55 | 1017.6 |
| 20260510151029 | 22 | 294 | 4.8 | 16.1 | 0.00 | 0.00 | 0.00 | 53 | 1017.5 |
| 20260510150530 | 22 | 51 | 3.2 | 14.5 | 0.00 | 0.00 | 0.00 | 55 | 1017.5 |
| 20260510150050 | 22 | 328 | 6.4 | 14.5 | 0.00 | 0.00 | 0.00 | 53 | 1017.5 |
| 20260510145531 | 22 | 0 | 3.2 | 11.3 | 0.00 | 0.00 | 0.00 | 56 | 1017.5 |
| 20260510145030 | 21 | 53 | 3.2 | 14.5 | 0.00 | 0.00 | 0.00 | 55 | 1017.5 |
| 20260510144606 | 21 | 94 | 6.4 | 14.5 | 0.00 | 0.00 | 0.00 | 57 | 1017.6 |
| 20260510144030 | 21 | 236 | 3.2 | 11.3 | 0.00 | 0.00 | 0.00 | 57 | 1017.5 |
| 20260510143529 | 21 | 225 | 3.2 | 11.3 | 0.00 | 0.00 | 0.00 | 61 | 1017.5 |
| 20260510143045 | 21 | 285 | 3.2 | 11.3 | 0.00 | 0.00 | 0.00 | 60 | 1017.5 |
| 20260510142529 | 20 | 235 | 4.8 | 11.3 | 0.00 | 0.00 | 0.00 | 62 | 1017.4 |
| 20260510142029 | 20 | 241 | 4.8 | 12.9 | 0.00 | 0.00 | 0.00 | 64 | 1017.6 |
| 20260510141538 | 20 | 210 | 4.8 | 12.9 | 0.00 | 0.00 | 0.00 | 65 | 1017.6 |
| 20260510141030 | 19 | 188 | 4.8 | 12.9 | 0.00 | 0.00 | 0.00 | 64 | 1017.6 |
| 20260510140532 | 19 | 234 | 6.4 | 12.9 | 0.00 | 0.00 | 0.00 | 64 | 1017.8 |
| 20260510140046 | 19 | 0 | 3.2 | 14.5 | 0.00 | 0.00 | 0.00 | 70 | 1017.7 |
| 20260510135530 | 18 | 238 | 4.8 | 14.5 | 0.00 | 0.00 | 0.00 | 69 | 1017.6 |
| 20260510135030 | 18 | 223 | 4.8 | 14.5 | 0.00 | 0.00 | 0.00 | 69 | 1017.7 |
| 20260510134549 | 17 | 220 | 4.8 | 12.9 | 0.00 | 0.00 | 0.00 | 71 | 1017.7 |
| 20260510134030 | 17 | 254 | 4.8 | 11.3 | 0.00 | 0.00 | 0.00 | 72 | 1017.8 |
| 20260510133530 | 17 | 277 | 3.2 | 11.3 | 0.00 | 0.00 | 0.00 | 72 | 1017.8 |
| 20260510133046 | 16 | 273 | 1.6 | 8.0 | 0.00 | 0.00 | 0.00 | 75 | 1017.9 |
| 20260510132530 | 16 | 148 | 0.0 | 4.8 | 0.00 | 0.00 | 0.00 | 80 | 1017.9 |
| 20260510132029 | 16 | 0 | 1.6 | 4.8 | 0.00 | 0.00 | 0.00 | 82 | 1017.9 |
| 20260510131547 | 15 | 150 | 1.6 | 4.8 | 0.00 | 0.00 | 0.00 | 85 | 1017.9 |
| 20260510131029 | 15 | 150 | 1.6 | 3.2 | 0.00 | 0.00 | 0.00 | 85 | 1017.9 |
| 20260510130530 | 14 | 150 | 0.0 | 4.8 | 0.00 | 0.00 | 0.00 | 89 | 1017.8 |
| 20260510130039 | 13 | 153 | 1.6 | 4.8 | 0.00 | 0.00 | 0.00 | 89 | 1017.7 |
| 20260510125529 | 12 | 150 | 1.6 | 4.8 | 0.00 | 0.00 | 0.00 | 90 | 1017.8 |
| 20260510125029 | 12 | 151 | 1.6 | 6.4 | 0.00 | 0.00 | 0.00 | 91 | 1017.9 |
| 20260510124548 | 12 | 157 | 1.6 | 6.4 | 0.00 | 0.00 | 0.00 | 92 | 1017.9 |
| 20260510124029 | 11 | 161 | 1.6 | 6.4 | 0.00 | 0.00 | 0.00 | 93 | 1018.0 |
| 20260510123530 | 11 | 167 | 1.6 | 6.4 | 0.00 | 0.00 | 0.00 | 93 | 1017.9 |
| 20260510123045 | 10 | 174 | 3.2 | 4.8 | 0.00 | 0.00 | 0.00 | 94 | 1017.9 |
| 20260510122529 | 10 | 213 | 0.0 | 3.2 | 0.00 | 0.00 | 0.00 | 95 | 1017.9 |
| 20260510122030 | 10 | 0 | 0.0 | 3.2 | 0.00 | 0.00 | 0.00 | 95 | 1017.7 |
| 20260510121542 | 9 | 218 | 1.6 | 3.2 | 0.00 | 0.00 | 0.00 | 96 | 1017.7 |
| 20260510121030 | 8 | 224 | 1.6 | 4.8 | 0.00 | 0.00 | 0.00 | 96 | 1017.6 |
| 20260510120533 | 8 | 225 | 0.0 | 4.8 | 0.00 | 0.00 | 0.00 | 96 | 1017.6 |
| 20260510120040 | 8 | 225 | 1.6 | 4.8 | 0.00 | 0.00 | 0.00 | 96 | 1017.5 |
| 20260510115530 | 7 | 246 | 0.0 | 3.2 | 0.00 | 0.00 | 0.00 | 96 | 1017.6 |
| 20260510115033 | 7 | 241 | 0.0 | 1.6 | 0.00 | 0.00 | 0.00 | 96 | 1017.6 |
| 20260510114601 | 6 | 360 | 0.0 | 1.6 | 0.00 | 0.00 | 0.00 | 96 | 1017.5 |
| 20260510114030 | 6 | 0 | 0.0 | 1.6 | 0.00 | 0.00 | 0.00 | 95 | 1017.8 |
| 20260510113529 | 5 | 0 | 0.0 | 1.6 | 0.00 | 0.00 | 0.00 | 95 | 1017.6 |
| 20260510113051 | 5 | 360 | 0.0 | 1.6 | 0.00 | 0.00 | 0.00 | 95 | 1017.6 |
| 20260510112530 | 5 | 360 | 0.0 | 1.6 | 0.00 | 0.00 | 0.00 | 95 | 1017.5 |
| 20260510112030 | 4 | 0 | 0.0 | 1.6 | 0.00 | 0.00 | 0.00 | 95 | 1017.4 |
| 20260510111541 | 4 | 360 | 0.0 | 0.0 | 0.00 | 0.00 | 0.00 | 95 | 1017.3 |
| 20260510111030 | 4 | 0 | 0.0 | 3.2 | 0.00 | 0.00 | 0.00 | 95 | 1017.2 |
| 20260510110530 | 3 | 0 | 0.0 | 3.2 | 0.00 | 0.00 | 0.00 | 95 | 1017.2 |
| 20260510110040 | 3 | 360 | 0.0 | 3.2 | 0.00 | 0.00 | 0.00 | 95 | 1017.0 |
| 20260510105529 | 3 | 360 | 0.0 | 3.2 | 0.00 | 0.00 | 0.00 | 94 | 1016.9 |
| 20260510105029 | 3 | 360 | 0.0 | 3.2 | 0.00 | 0.00 | 0.00 | 94 | 1016.8 |
| 20260510104548 | 3 | 360 | 0.0 | 3.2 | 0.00 | 0.00 | 0.00 | 95 | 1016.7 |
| 20260510104029 | 3 | 0 | 0.0 | 3.2 | 0.00 | 0.00 | 0.00 | 95 | 1016.7 |
| 20260510103530 | 3 | 360 | 0.0 | 3.2 | 0.00 | 0.00 | 0.00 | 94 | 1016.7 |
| 20260510103038 | 3 | 360 | 1.6 | 3.2 | 0.00 | 0.00 | 0.00 | 94 | 1016.4 |
| 20260510102530 | 3 | 0 | 0.0 | 3.2 | 0.00 | 0.00 | 0.00 | 94 | 1016.4 |
| 20260510102029 | 3 | 360 | 0.0 | 3.2 | 0.00 | 0.00 | 0.00 | 94 | 1016.4 |
| 20260510101538 | 3 | 0 | 0.0 | 3.2 | 0.00 | 0.00 | 0.00 | 94 | 1016.4 |
| 20260510101034 | 3 | 360 | 0.0 | 3.2 | 0.00 | 0.00 | 0.00 | 94 | 1016.4 |
| 20260510100530 | 3 | 360 | 0.0 | 3.2 | 0.00 | 0.00 | 0.00 | 94 | 1016.3 |
| 20260510100055 | 3 | 0 | 0.0 | 4.8 | 0.00 | 0.00 | 0.00 | 95 | 1016.3 |
| 20260510095532 | 3 | 360 | 0.0 | 4.8 | 0.00 | 0.00 | 0.00 | 94 | 1016.2 |
| 20260510095029 | 3 | 360 | 1.6 | 4.8 | 0.00 | 0.00 | 0.00 | 94 | 1016.1 |
| 20260510094537 | 3 | 360 | 1.6 | 4.8 | 0.00 | 0.00 | 0.00 | 94 | 1016.1 |
| 20260510094029 | 4 | 0 | 0.0 | 3.2 | 0.00 | 0.00 | 0.00 | 95 | 1016.1 |
| 20260510093529 | 3 | 0 | 0.0 | 3.2 | 0.00 | 0.00 | 0.00 | 94 | 1016.1 |
| 20260510093037 | 3 | 360 | 0.0 | 3.2 | 0.00 | 0.00 | 0.00 | 95 | 1016.1 |
| 20260510092529 | 3 | 0 | 0.0 | 3.2 | 0.00 | 0.00 | 0.00 | 94 | 1016.0 |
| 20260510092030 | 3 | 0 | 1.6 | 3.2 | 0.00 | 0.00 | 0.00 | 94 | 1016.1 |
| 20260510091540 | 3 | 360 | 1.6 | 3.2 | 0.00 | 0.00 | 0.00 | 94 | 1015.9 |
| 20260510091029 | 3 | 360 | 1.6 | 3.2 | 0.00 | 0.00 | 0.00 | 94 | 1015.9 |
| 20260510090529 | 3 | 0 | 0.0 | 3.2 | 0.00 | 0.00 | 0.00 | 94 | 1015.8 |
| 20260510090039 | 3 | 360 | 0.0 | 3.2 | 0.00 | 0.00 | 0.00 | 94 | 1015.8 |
| 20260510085529 | 3 | 0 | 0.0 | 3.2 | 0.00 | 0.00 | 0.00 | 94 | 1015.7 |
| 20260510085032 | 3 | 0 | 0.0 | 3.2 | 0.00 | 0.00 | 0.00 | 94 | 1015.8 |
| 20260510084539 | 3 | 360 | 0.0 | 3.2 | 0.00 | 0.00 | 0.00 | 94 | 1015.7 |
| 20260510084030 | 3 | 0 | 0.0 | 1.6 | 0.00 | 0.00 | 0.00 | 94 | 1015.7 |
| 20260510083530 | 3 | 0 | 0.0 | 3.2 | 0.00 | 0.00 | 0.00 | 95 | 1015.7 |
| 20260510083042 | 3 | 0 | 0.0 | 4.8 | 0.00 | 0.00 | 0.00 | 94 | 1015.6 |
| 20260510082530 | 3 | 360 | 1.6 | 4.8 | 0.00 | 0.00 | 0.00 | 94 | 1015.6 |
| 20260510082028 | 3 | 360 | 1.6 | 4.8 | 0.00 | 0.00 | 0.00 | 94 | 1015.6 |
| 20260510081537 | 3 | 360 | 1.6 | 3.2 | 0.00 | 0.00 | 0.00 | 94 | 1015.6 |
| 20260510081031 | 3 | 360 | 1.6 | 3.2 | 0.00 | 0.00 | 0.00 | 94 | 1015.5 |
| 20260510080530 | 4 | 0 | 0.0 | 3.2 | 0.00 | 0.00 | 0.00 | 94 | 1015.5 |
| 20260510080037 | 4 | 0 | 0.0 | 1.6 | 0.00 | 0.00 | 0.00 | 95 | 1015.5 |
| 20260510075532 | 3 | 0 | 0.0 | 3.2 | 0.00 | 0.00 | 0.00 | 94 | 1015.5 |
| 20260510075029 | 3 | 0 | 0.0 | 4.8 | 0.00 | 0.00 | 0.00 | 94 | 1015.4 |
| 20260510074544 | 3 | 360 | 1.6 | 4.8 | 0.00 | 0.00 | 0.00 | 94 | 1015.3 |
| 20260510074031 | 3 | 360 | 3.2 | 4.8 | 0.00 | 0.00 | 0.00 | 94 | 1015.3 |
| 20260510073530 | 4 | 0 | 1.6 | 4.8 | 0.00 | 0.00 | 0.00 | 94 | 1015.3 |
| 20260510073044 | 4 | 360 | 1.6 | 4.8 | 0.00 | 0.00 | 0.00 | 94 | 1015.2 |
| 20260510072530 | 4 | 360 | 3.2 | 4.8 | 0.00 | 0.00 | 0.00 | 94 | 1015.3 |
| 20260510072030 | 4 | 0 | 1.6 | 3.2 | 0.00 | 0.00 | 0.00 | 94 | 1015.3 |
| 20260510071539 | 4 | 360 | 0.0 | 3.2 | 0.00 | 0.00 | 0.00 | 94 | 1015.2 |
| 20260510071033 | 4 | 360 | 0.0 | 3.2 | 0.00 | 0.00 | 0.00 | 94 | 1015.1 |
| 20260510070529 | 3 | 0 | 0.0 | 3.2 | 0.00 | 0.00 | 0.00 | 94 | 1014.9 |
| 20260510070052 | 3 | 360 | 0.0 | 3.2 | 0.00 | 0.00 | 0.00 | 93 | 1014.9 |
| 20260510065536 | 4 | 0 | 1.6 | 3.2 | 0.00 | 0.00 | 0.00 | 93 | 1014.8 |
| 20260510065033 | 4 | 360 | 0.0 | 3.2 | 0.00 | 0.00 | 0.00 | 94 | 1014.8 |
| 20260510064552 | 4 | 360 | 0.0 | 3.2 | 0.00 | 0.00 | 0.00 | 93 | 1014.9 |
| 20260510064033 | 5 | 0 | 0.0 | 3.2 | 0.00 | 0.00 | 0.00 | 93 | 1014.9 |
| 20260510063534 | 5 | 360 | 0.0 | 3.2 | 0.00 | 0.00 | 0.00 | 94 | 1014.9 |
| 20260510063045 | 5 | 360 | 0.0 | 4.8 | 0.00 | 0.00 | 0.00 | 93 | 1014.9 |
| 20260510062533 | 5 | 360 | 1.6 | 4.8 | 0.00 | 0.00 | 0.00 | 94 | 1015.0 |
| 20260510062033 | 5 | 360 | 3.2 | 4.8 | 0.00 | 0.00 | 0.00 | 94 | 1015.1 |
| 20260510061541 | 5 | 360 | 1.6 | 4.8 | 0.00 | 0.00 | 0.00 | 93 | 1015.1 |
| 20260510061030 | 5 | 0 | 0.0 | 3.2 | 0.00 | 0.00 | 0.00 | 93 | 1015.0 |
| 20260510060530 | 5 | 0 | 0.0 | 3.2 | 0.00 | 0.00 | 0.00 | 93 | 1015.0 |
| 20260510060042 | 5 | 0 | 0.0 | 4.8 | 0.00 | 0.00 | 0.00 | 93 | 1015.0 |
| 20260510055533 | 5 | 360 | 1.6 | 4.8 | 0.00 | 0.00 | 0.00 | 93 | 1014.9 |
| 20260510055034 | 5 | 244 | 3.2 | 4.8 | 0.00 | 0.00 | 0.00 | 93 | 1014.9 |
| 20260510054553 | 5 | 246 | 1.6 | 3.2 | 0.00 | 0.00 | 0.00 | 93 | 1014.9 |
| 20260510054033 | 5 | 246 | 0.0 | 3.2 | 0.00 | 0.00 | 0.00 | 93 | 1014.8 |
| 20260510053534 | 6 | 246 | 0.0 | 1.6 | 0.00 | 0.00 | 0.00 | 94 | 1014.9 |
| 20260510053047 | 5 | 0 | 0.0 | 3.2 | 0.00 | 0.00 | 0.00 | 93 | 1015.0 |
| 20260510052534 | 6 | 0 | 0.0 | 3.2 | 0.00 | 0.00 | 0.00 | 93 | 1014.9 |
| 20260510052032 | 6 | 246 | 1.6 | 3.2 | 0.00 | 0.00 | 0.00 | 93 | 1014.9 |
| 20260510051545 | 5 | 246 | 0.0 | 3.2 | 0.00 | 0.00 | 0.00 | 93 | 1015.0 |
| 20260510051032 | 6 | 0 | 0.0 | 3.2 | 0.00 | 0.00 | 0.00 | 92 | 1014.9 |
| 20260510050535 | 6 | 246 | 0.0 | 4.8 | 0.00 | 0.00 | 0.00 | 93 | 1014.9 |
| 20260510050045 | 6 | 360 | 3.2 | 4.8 | 0.00 | 0.00 | 0.00 | 93 | 1014.9 |
| 20260510045536 | 6 | 360 | 3.2 | 4.8 | 0.00 | 0.00 | 0.00 | 93 | 1014.9 |
| 20260510045030 | 6 | 245 | 0.0 | 3.2 | 0.00 | 0.00 | 0.00 | 92 | 1015.0 |
| 20260510044541 | 7 | 0 | 0.0 | 3.2 | 0.00 | 0.00 | 0.00 | 93 | 1015.0 |
| 20260510044030 | 6 | 0 | 0.0 | 4.8 | 0.00 | 0.00 | 0.00 | 93 | 1015.0 |
| 20260510043530 | 6 | 360 | 1.6 | 4.8 | 0.00 | 0.00 | 0.00 | 93 | 1015.0 |
| 20260510043038 | 6 | 245 | 3.2 | 4.8 | 0.00 | 0.00 | 0.00 | 92 | 1014.9 |
| 20260510042533 | 7 | 0 | 0.0 | 3.2 | 0.00 | 0.00 | 0.00 | 93 | 1014.8 |
| 20260510042029 | 7 | 0 | 0.0 | 3.2 | 0.00 | 0.00 | 0.00 | 93 | 1014.9 |
| 20260510041548 | 7 | 0 | 0.0 | 4.8 | 0.00 | 0.00 | 0.00 | 92 | 1014.9 |
| 20260510041030 | 7 | 360 | 1.6 | 4.8 | 0.00 | 0.00 | 0.00 | 93 | 1014.9 |
| 20260510040530 | 7 | 360 | 1.6 | 4.8 | 0.00 | 0.00 | 0.00 | 93 | 1014.8 |
| 20260510040038 | 7 | 360 | 1.6 | 4.8 | 0.00 | 0.00 | 0.00 | 93 | 1014.8 |
| 20260510035529 | 7 | 0 | 0.0 | 3.2 | 0.00 | 0.00 | 0.00 | 93 | 1014.8 |
| 20260510035031 | 7 | 360 | 0.0 | 3.2 | 0.00 | 0.00 | 0.00 | 92 | 1014.7 |
| 20260510034537 | 7 | 0 | 0.0 | 3.2 | 0.00 | 0.00 | 0.00 | 92 | 1014.7 |
| 20260510034030 | 7 | 360 | 0.0 | 3.2 | 0.00 | 0.00 | 0.00 | 93 | 1014.8 |
| 20260510033529 | 7 | 360 | 0.0 | 3.2 | 0.00 | 0.00 | 0.00 | 93 | 1014.6 |
| 20260510033048 | 7 | 360 | 0.0 | 3.2 | 0.00 | 0.00 | 0.00 | 94 | 1014.6 |
| 20260510032529 | 7 | 360 | 0.0 | 4.8 | 0.00 | 0.00 | 0.00 | 92 | 1014.6 |
| 20260510032030 | 7 | 0 | 0.0 | 4.8 | 0.00 | 0.00 | 0.00 | 92 | 1014.5 |
| 20260510031541 | 7 | 360 | 1.6 | 4.8 | 0.00 | 0.00 | 0.00 | 92 | 1014.4 |
| 20260510031031 | 7 | 360 | 0.0 | 3.2 | 0.00 | 0.00 | 0.00 | 93 | 1014.5 |
| 20260510030531 | 7 | 360 | 1.6 | 4.8 | 0.00 | 0.00 | 0.00 | 92 | 1014.5 |
| 20260510030043 | 7 | 0 | 1.6 | 4.8 | 0.00 | 0.00 | 0.00 | 92 | 1014.5 |
| 20260510025532 | 7 | 360 | 1.6 | 4.8 | 0.00 | 0.00 | 0.00 | 92 | 1014.5 |
| 20260510025030 | 7 | 360 | 0.0 | 4.8 | 0.00 | 0.00 | 0.00 | 92 | 1014.6 |
| 20260510024543 | 7 | 360 | 1.6 | 4.8 | 0.00 | 0.00 | 0.00 | 92 | 1014.5 |
| 20260510024029 | 7 | 360 | 0.0 | 4.8 | 0.00 | 0.00 | 0.00 | 91 | 1014.6 |
| 20260510023530 | 7 | 360 | 0.0 | 4.8 | 0.00 | 0.00 | 0.00 | 91 | 1014.6 |
| 20260510023037 | 7 | 360 | 1.6 | 4.8 | 0.00 | 0.00 | 0.00 | 91 | 1014.5 |
| 20260510022530 | 7 | 0 | 0.0 | 3.2 | 0.00 | 0.00 | 0.00 | 91 | 1014.5 |
| 20260510022029 | 8 | 0 | 0.0 | 4.8 | 0.00 | 0.00 | 0.00 | 90 | 1014.4 |
| 20260510021540 | 8 | 360 | 1.6 | 4.8 | 0.00 | 0.00 | 0.00 | 90 | 1014.3 |
| 20260510021029 | 8 | 360 | 1.6 | 4.8 | 0.00 | 0.00 | 0.00 | 90 | 1014.3 |
| 20260510020529 | 8 | 360 | 0.0 | 3.2 | 0.00 | 0.00 | 0.00 | 89 | 1014.3 |
| 20260510020047 | 8 | 360 | 1.6 | 3.2 | 0.00 | 0.00 | 0.00 | 89 | 1014.1 |
| 20260510015529 | 8 | 246 | 0.0 | 4.8 | 0.00 | 0.00 | 0.00 | 89 | 1014.0 |
| 20260510015034 | 9 | 0 | 0.0 | 4.8 | 0.00 | 0.00 | 0.00 | 89 | 1013.9 |
| 20260510014541 | 9 | 246 | 1.6 | 4.8 | 0.00 | 0.00 | 0.00 | 89 | 1013.8 |
| 20260510014030 | 9 | 0 | 0.0 | 3.2 | 0.00 | 0.00 | 0.00 | 88 | 1013.7 |
| 20260510013530 | 9 | 246 | 0.0 | 3.2 | 0.00 | 0.00 | 0.00 | 88 | 1013.7 |
| 20260510013042 | 10 | 246 | 0.0 | 3.2 | 0.00 | 0.00 | 0.00 | 86 | 1013.5 |
| 20260510012530 | 10 | 246 | 1.6 | 3.2 | 0.00 | 0.00 | 0.00 | 86 | 1013.4 |
| 20260510012030 | 10 | 246 | 0.0 | 3.2 | 0.00 | 0.00 | 0.00 | 86 | 1013.2 |
| 20260510011538 | 10 | 246 | 0.0 | 3.2 | 0.00 | 0.00 | 0.00 | 84 | 1013.1 |
| 20260510011033 | 11 | 246 | 0.0 | 4.8 | 0.00 | 0.00 | 0.00 | 84 | 1012.9 |
| 20260510010532 | 11 | 246 | 1.6 | 4.8 | 0.00 | 0.00 | 0.00 | 83 | 1012.8 |
| 20260510010037 | 11 | 246 | 1.6 | 4.8 | 0.00 | 0.00 | 0.00 | 83 | 1012.8 |
| 20260510005531 | 11 | 246 | 1.6 | 4.8 | 0.00 | 0.00 | 0.00 | 82 | 1012.8 |
| 20260510005035 | 11 | 246 | 0.0 | 4.8 | 0.00 | 0.00 | 0.00 | 82 | 1012.6 |
| 20260510004551 | 12 | 246 | 1.6 | 4.8 | 0.00 | 0.00 | 0.00 | 80 | 1012.5 |
| 20260510004032 | 12 | 246 | 0.0 | 4.8 | 0.00 | 0.00 | 0.00 | 77 | 1012.4 |
| 20260510003532 | 13 | 246 | 1.6 | 4.8 | 0.00 | 0.00 | 0.00 | 76 | 1012.4 |
| 20260510003056 | 13 | 246 | 1.6 | 8.0 | 0.00 | 0.00 | 0.00 | 74 | 1012.3 |
| 20260510002534 | 13 | 0 | 1.6 | 8.0 | 0.00 | 0.00 | 0.00 | 74 | 1012.3 |
| 20260510002033 | 14 | 246 | 3.2 | 8.0 | 0.00 | 0.00 | 0.00 | 72 | 1012.3 |
| 20260510001547 | 15 | 261 | 1.6 | 6.4 | 0.00 | 0.00 | 0.00 | 68 | 1012.3 |
| 20260510001033 | 16 | 280 | 0.0 | 3.2 | 0.00 | 0.00 | 0.00 | 64 | 1012.4 |
| 20260510000530 | 17 | 0 | 0.0 | 6.4 | 0.00 | 0.00 | 0.00 | 61 | 1012.2 |
| 20260510000049 | 17 | 0 | 1.6 | 6.4 | 0.00 | 0.00 | 0.00 | 59 | 1012.1 |
| 20260509235530 | 17 | 275 | 0.0 | 4.8 | 0.00 | 0.00 | 0.00 | 59 | 1012.0 |
| 20260509235032 | 17 | 270 | 1.6 | 4.8 | 0.00 | 0.00 | 0.00 | 59 | 1012.1 |
| 20260509234604 | 18 | 0 | 0.0 | 6.4 | 0.00 | 0.00 | 0.00 | 57 | 1012.0 |
| 20260509234030 | 18 | 270 | 0.0 | 6.4 | 0.00 | 0.00 | 0.00 | 57 | 1011.9 |
| 20260509233535 | 20 | 317 | 0.0 | 6.4 | 0.00 | 0.00 | 0.00 | 53 | 1011.8 |
| 20260509233047 | 20 | 11 | 0.0 | 8.0 | 0.00 | 0.00 | 0.00 | 52 | 1011.8 |
| 20260509232533 | 20 | 330 | 3.2 | 8.0 | 0.00 | 0.00 | 0.00 | 51 | 1011.7 |
| 20260509232032 | 20 | 315 | 3.2 | 8.0 | 0.00 | 0.00 | 0.00 | 50 | 1011.6 |
| 20260509231545 | 20 | 258 | 1.6 | 9.7 | 0.00 | 0.00 | 0.00 | 52 | 1011.5 |
| 20260509231033 | 21 | 0 | 1.6 | 14.5 | 0.00 | 0.00 | 0.00 | 50 | 1011.4 |
| 20260509230532 | 20 | 74 | 3.2 | 14.5 | 0.00 | 0.00 | 0.00 | 49 | 1011.6 |
| 20260509230044 | 21 | 344 | 1.6 | 9.7 | 0.00 | 0.00 | 0.00 | 49 | 1011.6 |
| 20260509225534 | 21 | 228 | 1.6 | 12.9 | 0.00 | 0.00 | 0.00 | 49 | 1011.6 |
| 20260509225034 | 21 | 320 | 3.2 | 12.9 | 0.00 | 0.00 | 0.00 | 50 | 1011.5 |
| 20260509224547 | 21 | 329 | 1.6 | 14.5 | 0.00 | 0.00 | 0.00 | 49 | 1011.4 |
| 20260509224030 | 21 | 341 | 3.2 | 16.1 | 0.00 | 0.00 | 0.00 | 49 | 1011.5 |
| 20260509223530 | 21 | 245 | 6.4 | 16.1 | 0.00 | 0.00 | 0.00 | 48 | 1011.5 |
| 20260509223056 | 21 | 294 | 4.8 | 16.1 | 0.00 | 0.00 | 0.00 | 48 | 1011.6 |
| 20260509222529 | 21 | 249 | 3.2 | 12.9 | 0.00 | 0.00 | 0.00 | 49 | 1011.4 |
| 20260509222035 | 21 | 0 | 3.2 | 14.5 | 0.00 | 0.00 | 0.00 | 47 | 1011.5 |
| 20260509221541 | 21 | 336 | 3.2 | 14.5 | 0.00 | 0.00 | 0.00 | 49 | 1011.6 |
| 20260509221032 | 21 | 271 | 4.8 | 14.5 | 0.00 | 0.00 | 0.00 | 48 | 1011.6 |
| 20260509220530 | 22 | 69 | 4.8 | 16.1 | 0.00 | 0.00 | 0.00 | 48 | 1011.5 |
| 20260509220058 | 22 | 265 | 3.2 | 16.1 | 0.00 | 0.00 | 0.00 | 47 | 1011.6 |
| 20260509215530 | 22 | 360 | 3.2 | 14.5 | 0.00 | 0.00 | 0.00 | 46 | 1011.4 |
| 20260509215035 | 21 | 227 | 1.6 | 14.5 | 0.00 | 0.00 | 0.00 | 51 | 1011.3 |
| 20260509214541 | 21 | 49 | 4.8 | 16.1 | 0.00 | 0.00 | 0.00 | 48 | 1011.4 |
| 20260509214033 | 22 | 332 | 4.8 | 16.1 | 0.00 | 0.00 | 0.00 | 47 | 1011.4 |
| 20260509213533 | 21 | 315 | 4.8 | 12.9 | 0.00 | 0.00 | 0.00 | 49 | 1011.4 |
| 20260509213045 | 22 | 284 | 3.2 | 11.3 | 0.00 | 0.00 | 0.00 | 47 | 1011.3 |
| 20260509212530 | 22 | 291 | 1.6 | 9.7 | 0.00 | 0.00 | 0.00 | 47 | 1011.4 |
| 20260509212033 | 22 | 0 | 1.6 | 11.3 | 0.00 | 0.00 | 0.00 | 46 | 1011.2 |
| 20260509211546 | 22 | 229 | 1.6 | 14.5 | 0.00 | 0.00 | 0.00 | 50 | 1011.1 |
| 20260509211033 | 22 | 298 | 3.2 | 14.5 | 0.00 | 0.00 | 0.00 | 47 | 1011.1 |
| 20260509210530 | 22 | 291 | 4.8 | 14.5 | 0.00 | 0.00 | 0.00 | 48 | 1011.1 |
| 20260509210041 | 22 | 211 | 0.0 | 9.7 | 0.00 | 0.00 | 0.00 | 53 | 1011.0 |
| 20260509205529 | 20 | 76 | 3.2 | 9.7 | 0.00 | 0.00 | 0.00 | 52 | 1011.0 |
| 20260509205030 | 21 | 327 | 1.6 | 9.7 | 0.00 | 0.00 | 0.00 | 49 | 1011.1 |
| 20260509204554 | 21 | 0 | 3.2 | 12.9 | 0.00 | 0.00 | 0.00 | 50 | 1011.1 |
| 20260509204030 | 21 | 190 | 0.0 | 12.9 | 0.00 | 0.00 | 0.00 | 57 | 1011.1 |
| 20260509203531 | 20 | 189 | 3.2 | 12.9 | 0.00 | 0.00 | 0.00 | 49 | 1011.1 |
| 20260509203038 | 21 | 0 | 3.2 | 14.5 | 0.00 | 0.00 | 0.00 | 50 | 1011.0 |
| 20260509202534 | 21 | 95 | 1.6 | 14.5 | 0.00 | 0.00 | 0.00 | 47 | 1011.0 |
| 20260509202033 | 22 | 216 | 4.8 | 14.5 | 0.00 | 0.00 | 0.00 | 48 | 1010.9 |
| 20260509201534 | 21 | 312 | 3.2 | 14.5 | 0.00 | 0.00 | 0.00 | 50 | 1011.0 |
| 20260509201029 | 21 | 257 | 4.8 | 14.5 | 0.00 | 0.00 | 0.00 | 49 | 1010.9 |
| 20260509200530 | 22 | 301 | 3.2 | 14.5 | 0.00 | 0.00 | 0.00 | 47 | 1010.9 |
| 20260509200045 | 22 | 65 | 4.8 | 14.5 | 0.00 | 0.00 | 0.00 | 47 | 1010.8 |
| 20260509195533 | 22 | 329 | 4.8 | 16.1 | 0.00 | 0.00 | 0.00 | 49 | 1010.9 |
| 20260509195033 | 22 | 346 | 4.8 | 16.1 | 0.00 | 0.00 | 0.00 | 50 | 1010.8 |
| 20260509194546 | 21 | 290 | 4.8 | 14.5 | 0.00 | 0.00 | 0.00 | 49 | 1010.8 |
| 20260509194033 | 21 | 327 | 3.2 | 14.5 | 0.00 | 0.00 | 0.00 | 48 | 1010.8 |
| 20260509193532 | 21 | 0 | 6.4 | 14.5 | 0.00 | 0.00 | 0.00 | 49 | 1010.9 |
| 20260509193044 | 21 | 224 | 4.8 | 19.3 | 0.00 | 0.00 | 0.00 | 49 | 1010.7 |
| 20260509192534 | 20 | 278 | 9.7 | 19.3 | 0.00 | 0.00 | 0.00 | 50 | 1010.7 |
| 20260509192031 | 20 | 242 | 3.2 | 24.1 | 0.00 | 0.00 | 0.00 | 52 | 1010.8 |
| 20260509191536 | 20 | 235 | 6.4 | 24.1 | 0.00 | 0.00 | 0.00 | 51 | 1010.8 |
| 20260509191030 | 20 | 259 | 8.0 | 19.3 | 0.00 | 0.00 | 0.00 | 50 | 1010.7 |